ACA007 EGKK-KJFK

Flight info

Callsign ACA007
Flight time 1h 55m
Altitude 32000
Route IMVUR N63 SAM N19 ADKIK DCT PEWBI DCT MOPAT DCT TOBOR/M083F330 DCT 53N020W 53N030W 5230N04000W 50N050W DCT ELSIR/N0476F340 N402C ALLEX DCT ENE PARCH4
Aircraft B77W/H-SDE1E2E3FGHIJ2J3J4J5M1RWXY/LB1D1

Departure

Time 2026-05-06 21:08
Airport London Gatwick Airport (EGKK)

Arrival

Time 2026-05-06 23:04
Airport John F. Kennedy International Airport (KJFK)
Time Latitude Longitude Altitude Speed Heading
2026-05-06 20:25 51.15615 -0.16787 208 ft 0 kts 168°
2026-05-06 20:45 51.15636 -0.16795 210 ft 4 kts 165°
2026-05-06 20:45 51.15662 -0.16800 215 ft 4 kts 194°
2026-05-06 20:45 51.15682 -0.16788 217 ft 4 kts 232°
2026-05-06 20:46 51.15687 -0.16753 217 ft 4 kts 271°
2026-05-06 20:46 51.15687 -0.16735 220 ft 3 kts 257°
2026-05-06 20:47 51.15687 -0.16734 220 ft 0 kts 257°
2026-05-06 20:49 51.15687 -0.16735 220 ft 1 kts 257°
2026-05-06 20:50 51.15672 -0.16845 218 ft 17 kts 257°
2026-05-06 20:50 51.15646 -0.17027 212 ft 17 kts 257°
2026-05-06 20:50 51.15621 -0.17202 211 ft 14 kts 256°
2026-05-06 20:50 51.15568 -0.17308 218 ft 12 kts 192°
2026-05-06 20:51 51.15489 -0.17291 211 ft 10 kts 167°
2026-05-06 20:51 51.15469 -0.17284 217 ft 0 kts 167°
2026-05-06 20:51 51.15467 -0.17284 217 ft 2 kts 167°
2026-05-06 20:52 51.15414 -0.17270 216 ft 12 kts 180°
2026-05-06 20:52 51.15351 -0.17347 212 ft 12 kts 216°
2026-05-06 20:52 51.15301 -0.17447 219 ft 12 kts 252°
2026-05-06 20:52 51.15284 -0.17576 216 ft 12 kts 258°
2026-05-06 20:53 51.15267 -0.17704 217 ft 12 kts 256°
2026-05-06 20:53 51.15249 -0.17832 211 ft 12 kts 258°
2026-05-06 20:53 51.15232 -0.17960 218 ft 12 kts 258°
2026-05-06 20:53 51.15214 -0.18088 218 ft 12 kts 257°
2026-05-06 20:54 51.15196 -0.18215 219 ft 12 kts 257°
2026-05-06 20:54 51.15179 -0.18343 215 ft 12 kts 259°
2026-05-06 20:54 51.15163 -0.18472 216 ft 12 kts 259°
2026-05-06 20:54 51.15147 -0.18601 212 ft 12 kts 258°
2026-05-06 20:55 51.15130 -0.18729 215 ft 12 kts 258°
2026-05-06 20:55 51.15113 -0.18857 219 ft 12 kts 258°
2026-05-06 20:55 51.15096 -0.18985 215 ft 12 kts 258°
2026-05-06 20:55 51.15079 -0.19111 215 ft 12 kts 258°
2026-05-06 20:56 51.15061 -0.19240 209 ft 13 kts 258°
2026-05-06 20:56 51.15035 -0.19438 214 ft 21 kts 257°
2026-05-06 20:56 51.15027 -0.19492 219 ft 0 kts 257°
2026-05-06 20:56 51.15026 -0.19500 219 ft 5 kts 257°
2026-05-06 20:57 51.15005 -0.19647 215 ft 19 kts 257°
2026-05-06 20:57 51.14975 -0.19853 216 ft 19 kts 257°
2026-05-06 20:57 51.14948 -0.20063 213 ft 19 kts 260°
2026-05-06 20:57 51.14919 -0.20273 210 ft 19 kts 257°
2026-05-06 20:58 51.14890 -0.20482 213 ft 19 kts 259°
2026-05-06 20:58 51.14861 -0.20691 207 ft 19 kts 257°
2026-05-06 20:58 51.14832 -0.20904 213 ft 19 kts 258°
2026-05-06 20:58 51.14803 -0.21110 212 ft 19 kts 252°
2026-05-06 20:59 51.14766 -0.21315 211 ft 19 kts 255°
2026-05-06 20:59 51.14748 -0.21373 218 ft 0 kts 227°
2026-05-06 20:59 51.14745 -0.21376 218 ft 1 kts 221°
2026-05-06 21:00 51.14728 -0.21389 218 ft 4 kts 198°
2026-05-06 21:00 51.14698 -0.21389 212 ft 4 kts 168°
2026-05-06 21:00 51.14693 -0.21387 217 ft 0 kts 162°
2026-05-06 21:00 51.14679 -0.21372 216 ft 1 kts 146°
2026-05-06 21:01 51.14677 -0.21370 216 ft 0 kts 146°
2026-05-06 21:01 51.14676 -0.21369 216 ft 0 kts 146°
2026-05-06 21:01 51.14674 -0.21367 216 ft 0 kts 146°
2026-05-06 21:01 51.14673 -0.21365 216 ft 0 kts 146°
2026-05-06 21:03 51.14646 -0.21341 218 ft 4 kts 154°
2026-05-06 21:04 51.14639 -0.21337 216 ft 3 kts 160°
2026-05-06 21:04 51.14636 -0.21335 215 ft 0 kts 161°
2026-05-06 21:07 51.14611 -0.21323 214 ft 11 kts 162°
2026-05-06 21:07 51.14525 -0.21205 218 ft 23 kts 108°
2026-05-06 21:07 51.14561 -0.20822 213 ft 59 kts 77°
2026-05-06 21:08 51.14706 -0.19781 210 ft 132 kts 77°
2026-05-06 21:08 51.14953 -0.18020 227 ft 189 kts 77°
2026-05-06 21:08 51.15221 -0.16005 939 ft 186 kts 79°
2026-05-06 21:08 51.15481 -0.13952 1591 ft 190 kts 75°
2026-05-06 21:09 51.15787 -0.11860 1996 ft 204 kts 74°
2026-05-06 21:09 51.16119 -0.09588 2333 ft 216 kts 75°
2026-05-06 21:09 51.16619 -0.07323 2685 ft 220 kts 52°
2026-05-06 21:09 51.17763 -0.05736 3035 ft 221 kts 26°
2026-05-06 21:10 51.19256 -0.05154 3002 ft 225 kts 353°
2026-05-06 21:10 51.20817 -0.05714 3018 ft 242 kts 339°
2026-05-06 21:10 51.22182 -0.07166 3024 ft 259 kts 308°
2026-05-06 21:10 51.22806 -0.09831 3586 ft 262 kts 271°
2026-05-06 21:11 51.22555 -0.12692 4098 ft 261 kts 258°
2026-05-06 21:11 51.22181 -0.15551 4779 ft 264 kts 259°
2026-05-06 21:11 51.21821 -0.18413 5543 ft 263 kts 259°
2026-05-06 21:11 51.21468 -0.21289 6214 ft 266 kts 259°
2026-05-06 21:12 51.21120 -0.24203 6832 ft 269 kts 260°
2026-05-06 21:12 51.20056 -0.33300 8755 ft 276 kts 260°
2026-05-06 21:12 51.18491 -0.45567 10968 ft 293 kts 259°
2026-05-06 21:12 51.16142 -0.59066 12632 ft 342 kts 247°
2026-05-06 21:13 51.15013 -0.74625 14519 ft 378 kts 277°
2026-05-06 21:13 51.16030 -0.91733 17102 ft 396 kts 275°
2026-05-06 21:13 51.16927 -1.08226 19395 ft 409 kts 275°
2026-05-06 21:13 51.17896 -1.26578 21674 ft 421 kts 275°
2026-05-06 21:14 51.18864 -1.45468 23798 ft 434 kts 275°
2026-05-06 21:14 51.19826 -1.64863 25543 ft 443 kts 274°
2026-05-06 21:14 51.20773 -1.84650 27170 ft 452 kts 274°
2026-05-06 21:14 51.21707 -2.04863 28652 ft 460 kts 274°
2026-05-06 21:15 51.22615 -2.25308 30182 ft 462 kts 274°
2026-05-06 21:15 51.23481 -2.45609 31594 ft 458 kts 274°
2026-05-06 21:15 51.24318 -2.66059 32079 ft 466 kts 274°
2026-05-06 21:16 51.25886 -3.07028 31941 ft 457 kts 273°
2026-05-06 21:16 51.26599 -3.27021 32067 ft 446 kts 273°
2026-05-06 21:16 51.27277 -3.46995 32133 ft 455 kts 273°
2026-05-06 21:16 51.27935 -3.67421 32131 ft 468 kts 273°
2026-05-06 21:17 51.28570 -3.88281 31939 ft 469 kts 273°
2026-05-06 21:17 51.29536 -4.22633 31898 ft 455 kts 273°
2026-05-06 21:17 51.30430 -4.58108 32128 ft 463 kts 273°
2026-05-06 21:18 51.31345 -5.00065 32135 ft 479 kts 273°
2026-05-06 21:18 51.39044 -5.83299 31878 ft 468 kts 279°
2026-05-06 21:18 51.42751 -6.24587 32255 ft 478 kts 279°
2026-05-06 21:19 51.46461 -6.67558 33363 ft 496 kts 279°
2026-05-06 21:19 51.50119 -7.11588 34108 ft 501 kts 281°
2026-05-06 21:19 51.57254 -7.54808 33989 ft 499 kts 287°
2026-05-06 21:19 51.63815 -7.96701 33842 ft 487 kts 286°
2026-05-06 21:20 51.70351 -8.39369 33858 ft 475 kts 285°
2026-05-06 21:20 51.76548 -8.80950 34046 ft 481 kts 285°
2026-05-06 21:20 51.82731 -9.23510 34146 ft 493 kts 285°
2026-05-06 21:21 51.90930 -9.81923 33999 ft 491 kts 284°
2026-05-06 21:21 51.92388 -9.92600 33994 ft 482 kts 284°
2026-05-06 21:22 51.93830 -10.03208 33999 ft 482 kts 284°
2026-05-06 21:22 51.95255 -10.13741 34005 ft 482 kts 284°
2026-05-06 21:23 51.96683 -10.24379 34004 ft 484 kts 284°
2026-05-06 21:23 51.98107 -10.35063 34007 ft 485 kts 284°
2026-05-06 21:24 51.99524 -10.45771 34006 ft 486 kts 284°
2026-05-06 21:24 52.00934 -10.56514 34001 ft 487 kts 284°
2026-05-06 21:25 52.02336 -10.67283 33994 ft 488 kts 283°
2026-05-06 21:25 52.03729 -10.78054 34001 ft 487 kts 283°
2026-05-06 21:26 52.05108 -10.88805 33995 ft 485 kts 283°
2026-05-06 21:26 52.06470 -10.99514 33996 ft 483 kts 283°
2026-05-06 21:27 52.07819 -11.10195 33998 ft 482 kts 283°
2026-05-06 21:27 52.09156 -11.20860 34000 ft 481 kts 283°
2026-05-06 21:28 52.10481 -11.31510 33999 ft 480 kts 283°
2026-05-06 21:28 52.11788 -11.42098 33994 ft 481 kts 282°
2026-05-06 21:29 52.13094 -11.52773 33997 ft 481 kts 282°
2026-05-06 21:29 52.14394 -11.63472 33998 ft 482 kts 282°
2026-05-06 21:30 52.15686 -11.74200 33990 ft 483 kts 282°
2026-05-06 21:30 52.16969 -11.84941 33993 ft 483 kts 282°
2026-05-06 21:31 52.18241 -11.95673 33992 ft 482 kts 282°
2026-05-06 21:31 52.19499 -12.06381 33985 ft 480 kts 282°
2026-05-06 21:32 52.20743 -12.17051 33990 ft 478 kts 281°
2026-05-06 21:32 52.22585 -12.33016 33986 ft 477 kts 281°
2026-05-06 21:33 52.23799 -12.43650 33986 ft 477 kts 281°
2026-05-06 21:33 52.25004 -12.54295 33987 ft 477 kts 281°
2026-05-06 21:34 52.26199 -12.64943 33986 ft 477 kts 281°
2026-05-06 21:34 52.27378 -12.75532 33981 ft 477 kts 281°
2026-05-06 21:35 52.28555 -12.86207 33980 ft 478 kts 281°
2026-05-06 21:35 52.29725 -12.96905 33979 ft 478 kts 280°
2026-05-06 21:36 52.30885 -13.07600 33978 ft 478 kts 280°
2026-05-06 21:36 52.32034 -13.18304 33971 ft 478 kts 280°
2026-05-06 21:37 52.33175 -13.29010 33972 ft 477 kts 280°
2026-05-06 21:37 52.34302 -13.39697 33970 ft 477 kts 280°
2026-05-06 21:38 52.35422 -13.50404 33969 ft 477 kts 279°
2026-05-06 21:38 52.36532 -13.61115 33972 ft 477 kts 279°
2026-05-06 21:39 52.37630 -13.71816 33973 ft 477 kts 279°
2026-05-06 21:39 52.38720 -13.82531 33970 ft 478 kts 279°
2026-05-06 21:40 52.39794 -13.93196 33973 ft 477 kts 278°
2026-05-06 21:40 52.40866 -14.03934 33970 ft 477 kts 278°
2026-05-06 21:41 52.41927 -14.14654 33973 ft 476 kts 278°
2026-05-06 21:41 52.42972 -14.25339 33964 ft 474 kts 278°
2026-05-06 21:42 52.44005 -14.35992 33965 ft 472 kts 278°
2026-05-06 21:42 52.45023 -14.46590 33970 ft 470 kts 278°
2026-05-06 21:43 52.46023 -14.57111 33967 ft 470 kts 277°
2026-05-06 21:43 52.47019 -14.67689 33972 ft 470 kts 277°
2026-05-06 21:44 52.48007 -14.78291 33970 ft 470 kts 277°
2026-05-06 21:44 52.48988 -14.88923 33969 ft 471 kts 277°
2026-05-06 21:45 52.49962 -14.99565 33965 ft 472 kts 277°
2026-05-06 21:45 52.51115 -15.10177 33965 ft 473 kts 280°
2026-05-06 21:46 52.52455 -15.20750 33961 ft 473 kts 279°
2026-05-06 21:46 52.53777 -15.31336 33962 ft 473 kts 279°
2026-05-06 21:47 52.55056 -15.41937 33957 ft 473 kts 279°
2026-05-06 21:47 52.56307 -15.52536 33962 ft 472 kts 279°
2026-05-06 21:48 52.57547 -15.63142 33963 ft 472 kts 279°
2026-05-06 21:48 52.58768 -15.73667 33967 ft 472 kts 278°
2026-05-06 21:49 52.59989 -15.84270 33961 ft 472 kts 278°
2026-05-06 21:49 52.61200 -15.94873 33965 ft 472 kts 278°
2026-05-06 21:50 52.62401 -16.05473 33959 ft 471 kts 278°
2026-05-06 21:50 52.63594 -16.16090 33979 ft 471 kts 278°
2026-05-06 21:51 52.64776 -16.26697 33973 ft 471 kts 277°
2026-05-06 21:51 52.65946 -16.37292 33960 ft 470 kts 277°
2026-05-06 21:52 52.67104 -16.47868 33955 ft 469 kts 277°
2026-05-06 21:52 52.68250 -16.58426 33956 ft 468 kts 277°
2026-05-06 21:53 52.69385 -16.68980 33957 ft 467 kts 277°
2026-05-06 21:53 52.70510 -16.79528 33967 ft 467 kts 277°
2026-05-06 21:54 52.71626 -16.90085 33958 ft 468 kts 276°
2026-05-06 21:54 52.72734 -17.00672 33952 ft 468 kts 276°
2026-05-06 21:55 52.73827 -17.11194 33956 ft 469 kts 276°
2026-05-06 21:55 52.74920 -17.21812 33968 ft 469 kts 276°
2026-05-06 21:56 52.76002 -17.32429 33959 ft 468 kts 276°
2026-05-06 21:56 52.77074 -17.43039 33963 ft 468 kts 275°
2026-05-06 21:57 52.78133 -17.53626 33954 ft 467 kts 275°
2026-05-06 21:57 52.79181 -17.64198 33959 ft 466 kts 275°
2026-05-06 21:58 52.80210 -17.74677 33955 ft 465 kts 275°
2026-05-06 21:58 52.81236 -17.85229 33967 ft 465 kts 275°
2026-05-06 21:59 52.82253 -17.95786 33968 ft 465 kts 275°
2026-05-06 21:59 52.83261 -18.06359 33958 ft 465 kts 275°
2026-05-06 22:00 52.84260 -18.16933 33956 ft 465 kts 274°
2026-05-06 22:00 52.85249 -18.27506 33964 ft 465 kts 274°
2026-05-06 22:01 52.86228 -18.38082 33963 ft 464 kts 274°
2026-05-06 22:01 52.87197 -18.48646 33977 ft 464 kts 274°
2026-05-06 22:02 52.88155 -18.59201 33962 ft 463 kts 274°
2026-05-06 22:02 52.89096 -18.69679 33963 ft 463 kts 274°
2026-05-06 22:03 52.90032 -18.80217 33969 ft 462 kts 274°
2026-05-06 22:03 52.90959 -18.90755 33965 ft 462 kts 273°
2026-05-06 22:04 52.91876 -19.01288 33964 ft 462 kts 273°
2026-05-06 22:04 52.92785 -19.11835 33974 ft 462 kts 273°
2026-05-06 22:05 52.93533 -19.20610 33997 ft 463 kts 272°
2026-05-06 22:05 52.94426 -19.31185 33969 ft 463 kts 272°
2026-05-06 22:06 52.95309 -19.41755 33965 ft 462 kts 272°
2026-05-06 22:06 52.96181 -19.52309 33967 ft 461 kts 272°
2026-05-06 22:07 52.97042 -19.62852 33981 ft 461 kts 272°
2026-05-06 22:07 52.97894 -19.73401 33972 ft 462 kts 272°
2026-05-06 22:08 52.98737 -19.83964 33974 ft 462 kts 272°
2026-05-06 22:08 52.99575 -19.94553 33979 ft 462 kts 272°
2026-05-06 22:09 53.00267 -20.05134 33972 ft 460 kts 269°
2026-05-06 22:09 53.00693 -20.15729 33980 ft 460 kts 268°
2026-05-06 22:10 53.01089 -20.26331 34003 ft 460 kts 270°
2026-05-06 22:10 53.01493 -20.36929 33984 ft 459 kts 270°
2026-05-06 22:11 53.01898 -20.47490 33972 ft 457 kts 269°
2026-05-06 22:11 53.02292 -20.57938 33976 ft 456 kts 269°
2026-05-06 22:12 53.02677 -20.68433 33979 ft 454 kts 269°
2026-05-06 22:12 53.03052 -20.78898 33994 ft 454 kts 270°
2026-05-06 22:13 53.03417 -20.89354 33980 ft 453 kts 270°
2026-05-06 22:13 53.03773 -20.99808 33987 ft 453 kts 269°
2026-05-06 22:14 53.04120 -21.10256 33990 ft 453 kts 269°
2026-05-06 22:14 53.04457 -21.20708 33985 ft 453 kts 269°
2026-05-06 22:15 53.05936 -21.70233 34022 ft 454 kts 269°
2026-05-06 22:15 53.09018 -23.12695 33943 ft 456 kts 269°
2026-05-06 22:16 53.10475 -24.81846 33959 ft 459 kts 268°
2026-05-06 22:16 53.09515 -26.52197 34010 ft 462 kts 268°
2026-05-06 22:17 53.06109 -28.23084 33954 ft 462 kts 268°
2026-05-06 22:17 53.00253 -29.93608 33974 ft 463 kts 268°
2026-05-06 22:18 52.99308 -30.77741 34146 ft 464 kts 270°
2026-05-06 22:18 52.97572 -31.65800 34131 ft 478 kts 270°
2026-05-06 22:18 52.92431 -33.42094 33941 ft 477 kts 270°
2026-05-06 22:19 52.84848 -35.15523 34095 ft 471 kts 271°
2026-05-06 22:19 52.80154 -36.02137 34227 ft 475 kts 270°
2026-05-06 22:19 52.74738 -36.88961 34221 ft 475 kts 271°
2026-05-06 22:20 52.62160 -38.60171 33979 ft 462 kts 271°
2026-05-06 22:20 52.55201 -39.42756 34055 ft 449 kts 271°
2026-05-06 22:20 52.48871 -40.10380 31057 ft 298 kts 271°
2026-05-06 22:21 52.35924 -40.70357 31783 ft 350 kts 265°
2026-05-06 22:21 52.22845 -41.34444 34458 ft 396 kts 261°
2026-05-06 22:21 52.07148 -42.07920 35331 ft 457 kts 257°
2026-05-06 22:21 51.89839 -42.85885 34169 ft 455 kts 257°
2026-05-06 22:22 51.72636 -43.60804 33764 ft 432 kts 256°
2026-05-06 22:22 51.55642 -44.32512 34142 ft 430 kts 255°
2026-05-06 22:22 51.37766 -45.05288 34387 ft 446 kts 253°
2026-05-06 22:22 51.18950 -45.79436 34237 ft 451 kts 252°
2026-05-06 22:23 50.99807 -46.52406 33983 ft 442 kts 251°
2026-05-06 22:23 50.80672 -47.23157 34024 ft 433 kts 249°
2026-05-06 22:23 50.60967 -47.93609 33919 ft 426 kts 247°
2026-05-06 22:23 50.42216 -48.59207 33990 ft 407 kts 248°
2026-05-06 22:24 50.22644 -49.25523 34707 ft 437 kts 247°
2026-05-06 22:24 50.00966 -49.96898 34523 ft 468 kts 246°
2026-05-06 22:24 49.82802 -50.71503 33988 ft 458 kts 250°
2026-05-06 22:24 49.64560 -51.43639 33903 ft 442 kts 251°
2026-05-06 22:25 49.46475 -52.13736 34226 ft 440 kts 252°
2026-05-06 22:25 49.28675 -52.85013 34332 ft 452 kts 251°
2026-05-06 22:25 49.10084 -53.56546 34106 ft 451 kts 251°
2026-05-06 22:25 48.91248 -54.26842 34029 ft 448 kts 250°
2026-05-06 22:26 48.52843 -55.64277 34252 ft 442 kts 249°
2026-05-06 22:26 48.32596 -56.33265 34075 ft 443 kts 248°
2026-05-06 22:26 48.12422 -57.00371 34087 ft 439 kts 248°
2026-05-06 22:27 47.71576 -58.31054 34182 ft 431 kts 246°
2026-05-06 22:27 47.51103 -58.94069 34076 ft 428 kts 246°
2026-05-06 22:27 47.30144 -59.56947 34011 ft 427 kts 245°
2026-05-06 22:28 46.87409 -60.80808 34009 ft 426 kts 243°
2026-05-06 22:28 46.65444 -61.42213 34123 ft 424 kts 243°
2026-05-06 22:28 46.43225 -62.02987 34045 ft 424 kts 242°
2026-05-06 22:29 45.97972 -63.22571 33959 ft 423 kts 241°
2026-05-06 22:29 45.51647 -64.39922 34046 ft 423 kts 239°
2026-05-06 22:30 45.04388 -65.54602 33869 ft 417 kts 238°
2026-05-06 22:30 44.56943 -66.65338 33925 ft 412 kts 237°
2026-05-06 22:31 44.35416 -67.22249 33999 ft 425 kts 250°
2026-05-06 22:31 44.20110 -67.83316 33869 ft 414 kts 246°
2026-05-06 22:31 43.88135 -69.01948 33929 ft 403 kts 248°
2026-05-06 22:32 43.72020 -69.59519 33793 ft 399 kts 248°
2026-05-06 22:32 43.55762 -70.16258 33779 ft 396 kts 249°
2026-05-06 22:32 43.41943 -70.60341 33815 ft 408 kts 225°
2026-05-06 22:33 43.36957 -70.64351 33790 ft 425 kts 208°
2026-05-06 22:33 43.31417 -70.67019 33780 ft 425 kts 207°
2026-05-06 22:34 43.25846 -70.69655 33790 ft 423 kts 207°
2026-05-06 22:34 43.20293 -70.72338 33793 ft 423 kts 208°
2026-05-06 22:35 43.14749 -70.75045 33788 ft 423 kts 208°
2026-05-06 22:35 42.61255 -71.00941 33749 ft 425 kts 209°
2026-05-06 22:36 41.71352 -71.43545 33471 ft 424 kts 213°
2026-05-06 22:36 41.44467 -71.74477 34380 ft 385 kts 227°
2026-05-06 22:36 41.42311 -71.76723 34125 ft 400 kts 227°
2026-05-06 22:37 41.37893 -71.81406 33979 ft 409 kts 227°
2026-05-06 22:37 41.33496 -71.86213 33904 ft 409 kts 228°
2026-05-06 22:38 41.31317 -71.88611 33771 ft 403 kts 228°
2026-05-06 22:38 41.29175 -71.90967 33345 ft 397 kts 228°
2026-05-06 22:38 41.27095 -71.93251 33041 ft 388 kts 228°
2026-05-06 22:38 41.25010 -71.95536 32783 ft 378 kts 228°
2026-05-06 22:39 41.23032 -71.97702 32555 ft 369 kts 228°
2026-05-06 22:39 41.21073 -71.99852 32193 ft 363 kts 228°
2026-05-06 22:39 41.19137 -72.01981 31731 ft 360 kts 228°
2026-05-06 22:39 41.17208 -72.04101 31148 ft 360 kts 229°
2026-05-06 22:40 41.15284 -72.06212 30651 ft 358 kts 228°
2026-05-06 22:40 41.13366 -72.08308 30232 ft 355 kts 228°
2026-05-06 22:40 41.11495 -72.10403 29768 ft 346 kts 233°
2026-05-06 22:40 41.10026 -72.12849 29167 ft 336 kts 244°
2026-05-06 22:41 41.08263 -72.18451 28103 ft 327 kts 254°
2026-05-06 22:41 41.07570 -72.21313 27610 ft 325 kts 255°
2026-05-06 22:41 41.06885 -72.24163 27117 ft 323 kts 255°
2026-05-06 22:42 41.06199 -72.26993 26728 ft 321 kts 254°
2026-05-06 22:42 41.05517 -72.29784 26357 ft 317 kts 254°
2026-05-06 22:42 41.04837 -72.32548 25910 ft 315 kts 254°
2026-05-06 22:42 41.04156 -72.35306 25422 ft 315 kts 254°
2026-05-06 22:43 41.03472 -72.38063 24944 ft 314 kts 254°
2026-05-06 22:43 41.02790 -72.40803 24531 ft 313 kts 254°
2026-05-06 22:43 41.02112 -72.43521 23883 ft 306 kts 254°
2026-05-06 22:43 41.01452 -72.46155 23069 ft 298 kts 254°
2026-05-06 22:44 41.00808 -72.48731 22140 ft 292 kts 253°
2026-05-06 22:44 41.00174 -72.51262 21235 ft 287 kts 253°
2026-05-06 22:44 40.99550 -72.53757 20370 ft 283 kts 252°
2026-05-06 22:44 40.98932 -72.56218 19520 ft 280 kts 251°
2026-05-06 22:45 40.98317 -72.58669 18724 ft 282 kts 251°
2026-05-06 22:45 40.97702 -72.61117 17890 ft 279 kts 250°
2026-05-06 22:45 40.97091 -72.63543 16992 ft 276 kts 250°
2026-05-06 22:45 40.96485 -72.65946 16092 ft 274 kts 250°
2026-05-06 22:46 40.95884 -72.68329 15228 ft 272 kts 250°
2026-05-06 22:46 40.95286 -72.70700 14368 ft 271 kts 250°
2026-05-06 22:46 40.94691 -72.73055 13522 ft 269 kts 250°
2026-05-06 22:46 40.94099 -72.75393 12644 ft 266 kts 251°
2026-05-06 22:47 40.93526 -72.77655 12309 ft 254 kts 250°
2026-05-06 22:47 40.92716 -72.79778 12149 ft 265 kts 234°
2026-05-06 22:47 40.91387 -72.81486 11989 ft 268 kts 221°
2026-05-06 22:47 40.89883 -72.82929 11689 ft 266 kts 220°
2026-05-06 22:48 40.88420 -72.84306 11350 ft 253 kts 220°
2026-05-06 22:48 40.86995 -72.85651 11073 ft 251 kts 220°
2026-05-06 22:48 40.85567 -72.87007 10684 ft 255 kts 220°
2026-05-06 22:48 40.84115 -72.88391 10261 ft 259 kts 220°
2026-05-06 22:49 40.82653 -72.89786 9839 ft 260 kts 220°
2026-05-06 22:49 40.81179 -72.91194 9396 ft 263 kts 220°
2026-05-06 22:49 40.79700 -72.92606 9069 ft 260 kts 220°
2026-05-06 22:49 40.78744 -72.93518 9013 ft 252 kts 220°
2026-05-06 22:50 40.77334 -72.94865 9010 ft 251 kts 221°
2026-05-06 22:50 40.75908 -72.96229 9003 ft 255 kts 221°
2026-05-06 22:50 40.74482 -72.97594 9009 ft 251 kts 221°
2026-05-06 22:50 40.73085 -72.98926 8995 ft 248 kts 221°
2026-05-06 22:51 40.71678 -73.00272 8988 ft 252 kts 221°
2026-05-06 22:51 40.70270 -73.01621 8991 ft 247 kts 223°
2026-05-06 22:51 40.69185 -73.03307 9005 ft 243 kts 245°
2026-05-06 22:51 40.68608 -73.05415 9011 ft 247 kts 258°
2026-05-06 22:52 40.68303 -73.07647 9015 ft 249 kts 258°
2026-05-06 22:52 40.67952 -73.09903 8839 ft 253 kts 257°
2026-05-06 22:52 40.67584 -73.12193 8347 ft 257 kts 257°
2026-05-06 22:52 40.67223 -73.14431 7863 ft 243 kts 257°
2026-05-06 22:53 40.66870 -73.16597 7428 ft 244 kts 257°
2026-05-06 22:53 40.66513 -73.18764 6833 ft 240 kts 257°
2026-05-06 22:53 40.66156 -73.20901 6231 ft 237 kts 257°
2026-05-06 22:53 40.65796 -73.23051 5622 ft 244 kts 259°
2026-05-06 22:54 40.65837 -73.25274 5226 ft 246 kts 285°
2026-05-06 22:54 40.66575 -73.27355 5095 ft 258 kts 295°
2026-05-06 22:54 40.67481 -73.29390 5005 ft 254 kts 297°
2026-05-06 22:54 40.68381 -73.31346 4999 ft 245 kts 297°
2026-05-06 22:55 40.69261 -73.33248 4953 ft 244 kts 297°
2026-05-06 22:55 40.70157 -73.35187 4683 ft 250 kts 297°
2026-05-06 22:55 40.71064 -73.37158 4394 ft 252 kts 297°
2026-05-06 22:55 40.71972 -73.39131 4106 ft 250 kts 297°
2026-05-06 22:56 40.72856 -73.41044 4049 ft 240 kts 297°
2026-05-06 22:56 40.73721 -73.42901 3999 ft 235 kts 297°
2026-05-06 22:56 40.74556 -73.44688 3990 ft 227 kts 297°
2026-05-06 22:56 40.75367 -73.46407 3727 ft 215 kts 297°
2026-05-06 22:57 40.76158 -73.48062 3314 ft 214 kts 297°
2026-05-06 22:57 40.76953 -73.49710 3006 ft 207 kts 297°
2026-05-06 22:57 40.77721 -73.51278 3092 ft 207 kts 297°
2026-05-06 22:57 40.78499 -73.52873 2862 ft 207 kts 297°
2026-05-06 22:58 40.79282 -73.54474 2478 ft 209 kts 297°
2026-05-06 22:58 40.80079 -73.56096 2116 ft 210 kts 297°
2026-05-06 22:58 40.80587 -73.57780 1981 ft 191 kts 267°
2026-05-06 22:58 40.80248 -73.59411 1973 ft 180 kts 242°
2026-05-06 22:59 40.79609 -73.60752 1962 ft 166 kts 238°
2026-05-06 22:59 40.78988 -73.61973 1963 ft 157 kts 237°
2026-05-06 22:59 40.78381 -73.63165 1986 ft 157 kts 237°
2026-05-06 22:59 40.77765 -73.64365 1988 ft 158 kts 237°
2026-05-06 23:00 40.76988 -73.65363 1997 ft 155 kts 219°
2026-05-06 23:00 40.76109 -73.66237 2020 ft 161 kts 220°
2026-05-06 23:00 40.75170 -73.67084 2002 ft 165 kts 217°
2026-05-06 23:00 40.74203 -73.67870 1996 ft 162 kts 216°
2026-05-06 23:01 40.73244 -73.68628 2004 ft 161 kts 215°
2026-05-06 23:01 40.72264 -73.69401 1795 ft 167 kts 214°
2026-05-06 23:01 40.71290 -73.70165 1569 ft 158 kts 215°
2026-05-06 23:01 40.70368 -73.70890 1374 ft 152 kts 214°
2026-05-06 23:02 40.69496 -73.71576 1185 ft 144 kts 214°
2026-05-06 23:02 40.68655 -73.72238 996 ft 142 kts 213°
2026-05-06 23:02 40.67784 -73.72923 789 ft 147 kts 211°
2026-05-06 23:02 40.66904 -73.73612 605 ft 147 kts 210°
2026-05-06 23:03 40.66023 -73.74303 387 ft 146 kts 209°
2026-05-06 23:03 40.65162 -73.74984 219 ft 144 kts 210°
2026-05-06 23:03 40.64301 -73.75655 52 ft 143 kts 211°
2026-05-06 23:03 40.63504 -73.76286 28 ft 116 kts 210°
2026-05-06 23:04 40.63029 -73.76671 29 ft 31 kts 225°
2026-05-06 23:04 40.62932 -73.76923 29 ft 27 kts 265°
2026-05-06 23:04 40.62990 -73.77110 31 ft 22 kts 303°
2026-05-06 23:04 40.63071 -73.77279 31 ft 22 kts 302°
2026-05-06 23:05 40.63141 -73.77431 26 ft 16 kts 299°
2026-05-06 23:05 40.63175 -73.77510 27 ft 1 kts 300°